SCP
0 0 0 0 0 0 0 0 0 0 0 0 0 0 0 0 0 0 0 0 0 0 0 0 0 0 0 0 0 0 0 0 0 0 0 0 0 0
0 0 0 0 0 0 0 0 0 0 0 0 0 0 0 0 0 0 0 0 0 0 0 0 0 0 0 0 0 0 0 0 0 0 0 0 0 0
0 0 0 0 0 0 0 0 0 0 0 0 0 0 0 0 0 0 0 0 0 0 0 0 0 0 0 0 0 0 0 0 0 0 0 0 0 0
0 0 0 0 0 0 0 0 0 0 0 0 0 0 0 0 0 0 0 0 0 0 0 0 0 0 0 0 0 0 0 0 0 0 0 0 0 0
0 0 0 0 0 0 0 0 0 0 0 0 0 0 0 0 0 0 0 0 0 0 0 0 0 0 0 0 0 0 0 0 0 0 0 0 0 0
0 0 0 0 0 0 0 0 0 0 0 0 0 0 0 0 0 0 0 0 0 0 0 0 0 0 0 0 0 0 0 0 0 0 0 0 0 0
0 0 0 0 0 0 0 0 0 0 0 0 0 0 0 0 0 0 0 0 0 0 0 0 0 0 0 0 0 0 0 0 0 0 0 0 0 0
1 1 0 0 0 0 0 0 0 0 0 0 0 0 0 0 0 0 0 0 0 0 0 0 0 0 0 0 0 0 0 0 0 0 0 0 0 0
1 1 0 0 0 0 0 0 0 0 0 0 0 0 0 0 0 0 0 0 0 0 0 0 0 0 0 0 0 0 0 0 0 0 0 0 0 0
0 1 0 0 0 0 0 0 0 0 0 0 0 0 0 0 0 0 0 0 0 0 0 0 0 0 0 0 0 0 0 0 0 0 0 0 0 0
0 0 0 0 0 0 0 0 0 0 0 0 0 0 0 0 0 0 0 0 0 0 0 0 0 0 0 0 0 0 0 0 0 0 0 0 0 0
0 0 0 0 0 0 0 0 0 0 0 0 0 0 0 0 0 0 0 0 0 0 0 0 0 0 0 0 0 0 0 0 0 0 0 0 0 0
0 0 0 0 0 0 0 0 0 0 0 0 0 0 0 0 0 0 0 0 0 0 0 0 0 0 0 0 0 0 0 0 0 0 0 0 0 0
0 0 0 0 0 0 0 0 0 0 0 0 0 0 0 0 0 0 0 0 0 0 0 0 0 0 0 0 0 0 0 0 0 0 0 0 0 0
0 0 0 0 0 0 0 0 0 0 0 0 0 0 0 0 0 0 0 0 0 0 0 0 0 0 0 0 0 0 0 0 0 0 0 0 0 0
0 0 0 0 0 0 0 0 0 0 0 0 0 0 0 0 0 0 0 0 0 0 0 0 0 0 0 0 0 0 0 0 0 0 0 0 0 0
0 0 0 0 0 0 0 0 0 0 0 0 0 0 0 0 0 0 0 0 0 0 0 0 0 0 0 0 0 0 0 0 0 0 0 0 0 0
0 0 0 0 0 0 0 0 0 0 0 0 0 0 0 0 0 0 0 0 0 0 0 0 0 0 0 0 0 0 0 0 0 0 0 0 0 0
0 0 0 0 0 0 0 0 0 0 0 0 0 0 0 0 0 0 0 0 0 0 0 0 0 0 0 0 0 0 0 0 0 0 0 0 0 0
0 0 0 0 0 0 0 0 0 0 0 0 0 0 0 0 0 0 0 0 0 0 0 0 0 0 0 0 0 0 0 0 0 0 0 0 0 0
0 0 0 0 0 0 0 0 0 0 0 0 0 0 0 0 0 0 0 0 0 0 0 0 0 0 0 0 0 0 0 0 0 0 0 0 0 0
0 0 0 0 0 0 0 0 0 0 0 0 0 0 0 0 0 0 0 0 0 0 0 0 0 0 0 0 0 0 0 0 0 0 0 0 0 0
0 0 0 0 0 0 0 0 0 0 0 0 0 0 0 0 0 0 0 0 0 0 0 0 0 0 0 0 0 0 0 0 0 0 0 0 0 0
Wind_Speed
2 2 2 2 1 1 1 1 2 3 3 2 1 0 1 1 5 3 2 7 9 9 10 9 9 8 8 9 10 10 11 12 13 13 14 16 16 18
2 2 1 2 2 2 1 2 2 2 3 3 2 1 1 2 2 2 3 6 10 12 13 12 12 11 10 10 10 10 11 12 12 12 12 13 15 16
3 3 3 3 2 3 2 2 2 2 3 4 3 2 2 3 3 3 4 5 6 13 15 15 14 14 13 12 12 12 12 12 12 13 13 13 14 15
4 3 3 3 3 3 2 3 3 3 3 5 4 4 5 4 5 5 6 7 5 8 13 15 15 15 14 14 13 13 13 13 13 13 13 14 14 15
4 4 4 4 4 3 3 4 3 4 3 4 5 4 4 5 4 4 6 5 7 9 10 14 16 16 15 15 15 15 14 14 14 14 14 14 14 14
5 5 5 5 5 4 5 5 5 4 4 4 5 4 4 4 3 3 4 4 5 7 6 6 11 16 18 17 17 16 16 16 16 15 15 15 14 14
5 5 6 7 7 5 6 4 4 3 4 4 5 4 4 3 3 2 4 4 4 5 4 5 4 5 8 13 16 17 17 17 17 16 16 15 15 15
5 6 6 7 9 12 12 11 8 7 6 5 5 6 6 5 3 4 4 4 4 3 3 5 4 4 4 5 11 17 18 18 18 17 17 16 16 16
6 5 7 8 6 6 10 14 14 15 14 9 9 9 8 6 5 5 5 5 6 4 5 6 5 6 6 8 12 13 16 18 18 18 17 17 17 16
7 7 7 8 9 7 7 7 8 9 12 12 11 12 11 9 8 7 7 7 7 7 7 8 7 7 8 6 10 12 14 16 18 18 18 18 17 17
8 8 8 9 11 12 9 8 9 8 11 15 16 16 16 14 9 5 6 6 8 7 6 7 6 6 5 5 7 12 14 16 17 18 18 18 17 15
6 8 12 12 11 10 8 8 9 9 9 10 9 11 12 13 15 12 9 9 9 7 6 6 6 5 5 5 5 5 6 11 15 16 17 17 15 9
6 6 5 5 8 9 8 8 11 10 8 8 8 8 8 9 10 11 11 11 10 9 6 5 5 4 5 5 4 4 5 5 6 9 14 17 16 13
6 6 5 6 7 9 9 12 14 11 8 8 9 8 8 8 8 9 11 12 11 12 9 7 5 5 6 7 6 5 5 5 5 6 6 11 15 17
7 9 10 12 12 10 14 16 12 9 8 10 10 9 8 8 7 6 7 9 11 12 12 11 9 8 7 8 8 6 6 6 5 5 6 6 6 7
7 8 11 13 13 13 13 11 10 10 10 10 9 8 7 7 6 6 6 6 7 8 10 11 11 11 9 9 8 8 7 6 5 6 6 6 5 6
5 6 7 8 8 8 8 8 8 8 9 10 9 9 8 7 7 6 5 5 6 7 7 6 8 10 11 9 8 8 8 7 7 6 6 6 6 6
4 7 9 9 9 9 8 8 7 7 7 7 7 8 8 8 7 6 6 6 7 7 7 6 5 4 5 7 11 11 9 9 7 7 6 7 7 6
5 8 9 9 9 8 8 8 8 7 6 6 7 7 7 7 7 7 7 7 7 7 7 6 5 6 8 10 9 13 10 8 7 6 6 7 8 7
7 8 8 8 7 7 7 7 7 6 6 6 7 7 7 7 8 8 7 8 8 7 7 6 6 7 9 10 8 6 11 9 7 7 7 6 6 7
7 7 7 7 7 7 7 6 7 6 7 7 7 7 7 7 8 7 7 10 9 7 8 8 8 9 7 5 7 7 7 11 11 7 6 5 6 6
7 7 7 7 8 7 7 7 7 7 7 7 7 7 7 7 8 8 7 8 7 8 9 7 6 6 5 7 9 9 8 6 8 11 10 9 6 6
7 7 7 8 8 7 7 8 9 8 7 7 7 7 7 6 6 7 8 8 8 8 7 7 6 6 7 7 8 8 9 8 6 5 6 9 13 12
Wind_Direction
252 225 251 286 284 302 311 314 310 312 315 320 348 142 172 161 175 218 228 211 219 226 230 234 238 243 248 248 243 238 238 238 237 236 237 237 238 238
233 234 256 290 309 290 277 285 283 288 297 314 299 294 322 294 222 247 278 253 232 235 233 233 234 236 238 239 240 239 240 240 239 237 237 238 238 238
243 228 223 254 286 303 295 277 269 274 283 295 302 311 293 268 264 255 265 255 241 240 233 230 231 232 234 235 236 237 238 239 239 239 238 238 238 238
235 240 243 247 232 255 278 286 281 270 261 276 285 282 274 260 246 240 260 269 269 261 236 228 228 230 231 233 235 235 236 236 236 237 237 238 238 238
237 236 239 247 252 246 255 265 277 283 279 275 278 271 266 259 249 251 258 263 270 274 249 229 228 230 231 233 234 234 234 234 234 234 235 236 237 237
240 241 241 240 241 240 251 247 253 265 270 270 268 267 264 262 250 247 265 260 269 283 287 261 232 228 231 232 234 233 233 232 232 233 233 234 234 235
239 241 244 243 238 237 252 256 269 269 274 277 277 279 275 282 280 274 275 277 270 267 269 273 255 232 228 234 237 237 234 232 231 231 230 230 232 233
242 244 250 243 235 231 236 241 241 249 258 266 276 276 280 285 289 289 287 287 283 281 295 290 287 274 254 234 230 228 229 229 229 229 229 229 228 229
252 251 258 261 249 234 232 235 241 242 238 243 257 263 270 276 285 288 280 277 274 280 291 279 270 270 265 271 261 240 228 226 225 226 227 227 228 229
253 250 250 258 262 258 259 252 239 238 232 230 237 245 250 250 251 257 261 268 264 256 245 258 256 252 258 256 264 255 235 227 225 224 224 225 226 228
254 256 252 252 250 248 248 254 258 258 256 247 228 232 238 245 246 256 260 265 270 265 249 251 256 255 252 251 252 252 241 230 226 225 224 225 226 227
259 257 255 254 255 248 245 252 257 258 264 273 260 246 244 246 240 234 242 250 259 263 253 255 260 261 267 255 252 253 243 237 233 231 229 228 224 219
267 269 270 270 260 255 246 250 254 261 269 267 265 257 244 238 235 226 221 229 242 249 251 254 263 264 266 273 271 265 249 237 227 231 230 230 222 210
272 281 288 308 300 279 265 260 259 262 264 263 261 259 255 249 239 230 222 220 226 237 248 254 261 261 268 272 271 266 261 251 238 230 220 220 222 220
271 283 293 294 291 278 260 258 258 255 252 253 254 254 252 252 251 243 233 226 228 235 241 238 239 245 245 254 263 264 265 260 251 247 237 220 208 203
269 285 284 275 269 265 266 258 244 240 242 248 251 252 251 252 252 248 242 237 240 242 235 233 233 236 244 246 250 257 256 256 254 251 249 243 225 211
311 292 284 280 271 265 261 256 249 241 239 244 251 254 254 256 253 248 246 248 252 257 255 241 234 231 234 236 247 251 253 253 249 245 245 251 246 233
283 278 278 277 277 276 275 272 263 256 251 248 249 254 256 256 257 254 246 244 247 250 251 248 245 249 252 247 231 244 249 251 249 243 239 247 253 244
260 269 271 272 273 274 273 273 273 269 264 261 258 255 256 258 259 257 252 248 246 248 248 241 237 237 252 261 248 222 234 244 243 243 240 239 248 248
260 268 274 277 281 284 285 286 286 287 281 276 271 267 262 260 259 257 256 253 253 254 255 247 237 234 241 253 260 252 229 236 244 246 245 245 248 251
288 292 294 296 293 290 290 287 286 285 285 282 277 273 271 270 266 261 260 261 256 255 254 253 248 242 245 252 257 257 246 230 232 235 236 241 250 250
292 297 301 302 302 297 292 288 287 285 283 279 277 274 272 270 270 269 266 264 258 254 255 257 254 247 241 244 252 258 258 249 238 237 238 232 232 239
304 307 309 306 303 303 302 299 297 295 293 288 285 282 278 276 275 274 272 268 266 262 260 259 256 247 245 243 251 256 257 253 247 238 238 233 232 239